TRA5062 LEGE-EHRD

Flight info

Callsign TRA5062
Flight time N/A
Altitude 36000
Route GEANT DCT ROCAN DCT TOU DCT ADABI DCT BOKNO DCT DEVRO DCT VANAD DCT PIWIZ DCT VADOM DCT BAMES DCT ARSAF DCT EGOZE DCT CMB DCT VEKIN DCT ADUTO N873 FERDI Y18 DENUT
Aircraft B738/M-SDE2E3FGHIJ1RWXYZ/LB1

Departure

Time 2026-04-28 16:50
Airport Girona-Costa Brava Airport (LEGE)

Arrival

Time N/A
Airport Rotterdam The Hague Airport (EHRD)
Time Latitude Longitude Altitude Speed Heading
2026-04-28 16:25 41.89853 2.76478 416 ft 0 kts 106°
2026-04-28 16:42 41.89858 2.76448 413 ft 4 kts 87°
2026-04-28 16:42 41.89851 2.76415 417 ft 4 kts 54°
2026-04-28 16:42 41.89832 2.76392 415 ft 4 kts 21°
2026-04-28 16:42 41.89825 2.76388 414 ft 1 kts 16°
2026-04-28 16:45 41.89829 2.76390 415 ft 2 kts 16°
2026-04-28 16:45 41.89848 2.76394 418 ft 3 kts
2026-04-28 16:45 41.89874 2.76381 413 ft 5 kts 323°
2026-04-28 16:46 41.89890 2.76341 420 ft 5 kts 289°
2026-04-28 16:46 41.89902 2.76287 414 ft 7 kts 286°
2026-04-28 16:46 41.89926 2.76237 424 ft 7 kts 337°
2026-04-28 16:46 41.89978 2.76243 429 ft 10 kts 15°
2026-04-28 16:47 41.90070 2.76278 427 ft 17 kts 16°
2026-04-28 16:47 41.90201 2.76327 434 ft 21 kts 15°
2026-04-28 16:47 41.90337 2.76379 426 ft 20 kts 16°
2026-04-28 16:47 41.90479 2.76433 438 ft 22 kts 16°
2026-04-28 16:48 41.90633 2.76491 438 ft 23 kts 15°
2026-04-28 16:48 41.90785 2.76549 454 ft 22 kts 16°
2026-04-28 16:48 41.90933 2.76605 461 ft 22 kts 15°
2026-04-28 16:48 41.91092 2.76665 463 ft 25 kts 15°
2026-04-28 16:49 41.91272 2.76734 465 ft 28 kts 16°
2026-04-28 16:49 41.91411 2.76757 468 ft 17 kts 338°
2026-04-28 16:49 41.91518 2.76675 472 ft 19 kts 322°
2026-04-28 16:49 41.91476 2.76577 474 ft 17 kts 194°
2026-04-28 16:50 41.91317 2.76518 471 ft 46 kts 195°
2026-04-28 16:50 41.90763 2.76309 462 ft 117 kts 196°
2026-04-28 16:50 41.89811 2.75942 634 ft 155 kts 194°
2026-04-28 16:50 41.88784 2.75546 1463 ft 151 kts 193°
2026-04-28 16:51 41.87776 2.75185 2091 ft 164 kts 192°
2026-04-28 16:51 41.86567 2.74783 2464 ft 189 kts 193°
2026-04-28 16:51 41.85217 2.74324 2791 ft 211 kts 194°
2026-04-28 16:51 41.83814 2.73836 3544 ft 209 kts 193°
2026-04-28 16:52 41.82392 2.73341 4273 ft 213 kts 193°
2026-04-28 16:52 41.80963 2.72708 4956 ft 221 kts 207°
2026-04-28 16:52 41.80100 2.71975 5502 ft 221 kts 218°
2026-04-28 16:52 41.79024 2.70451 6299 ft 225 kts 235°
2026-04-28 16:53 41.78334 2.68580 7001 ft 228 kts 252°
2026-04-28 16:53 41.78096 2.66480 7773 ft 232 kts 269°
2026-04-28 16:53 41.78369 2.64321 8496 ft 238 kts 287°
2026-04-28 16:53 41.79149 2.62345 9233 ft 246 kts 305°
2026-04-28 16:54 41.80407 2.60778 10049 ft 248 kts 327°
2026-04-28 16:54 41.82014 2.59871 10733 ft 254 kts 347°
2026-04-28 16:54 41.83796 2.59612 11335 ft 263 kts 355°
2026-04-28 16:54 41.85653 2.59508 11943 ft 270 kts 355°
2026-04-28 16:55 41.87565 2.59416 12445 ft 285 kts 355°
2026-04-28 16:55 41.89633 2.59309 12639 ft 311 kts 355°
2026-04-28 16:55 41.91888 2.59183 12829 ft 336 kts 356°
2026-04-28 16:55 41.94286 2.59040 13235 ft 352 kts 356°
2026-04-28 16:56 41.96756 2.58890 14005 ft 354 kts 356°
2026-04-28 16:56 41.99227 2.58736 14757 ft 358 kts 355°
2026-04-28 16:56 42.01729 2.58575 15465 ft 362 kts 355°
2026-04-28 16:56 42.04259 2.58410 16229 ft 365 kts 355°
2026-04-28 16:57 42.06805 2.58244 16955 ft 369 kts 355°
2026-04-28 16:57 42.09390 2.58069 17663 ft 373 kts 353°
2026-04-28 16:57 42.11877 2.57201 18291 ft 370 kts 328°
2026-04-28 16:57 42.13872 2.55077 18953 ft 365 kts 311°
2026-04-28 16:58 42.15676 2.52649 19603 ft 369 kts 313°
2026-04-28 16:58 42.17573 2.50313 19994 ft 381 kts 316°
2026-04-28 16:58 42.19625 2.47978 20485 ft 388 kts 317°
2026-04-28 16:58 42.21726 2.45660 21121 ft 391 kts 317°
2026-04-28 16:59 42.23839 2.43329 21751 ft 393 kts 317°
2026-04-28 16:59 42.25963 2.40974 22348 ft 397 kts 317°
2026-04-28 16:59 42.28107 2.38589 22915 ft 401 kts 317°
2026-04-28 16:59 42.30260 2.36189 23495 ft 404 kts 317°
2026-04-28 17:00 42.32437 2.33759 23980 ft 407 kts 317°
2026-04-28 17:00 42.34631 2.31307 24458 ft 410 kts 317°
2026-04-28 17:00 42.36836 2.28842 24939 ft 413 kts 317°
2026-04-28 17:00 42.39032 2.26385 25399 ft 416 kts 317°
2026-04-28 17:01 42.41268 2.23881 25809 ft 419 kts 317°
2026-04-28 17:01 42.43518 2.21358 26256 ft 422 kts 317°
2026-04-28 17:01 42.45788 2.18819 26700 ft 425 kts 317°
2026-04-28 17:01 42.48075 2.16265 27132 ft 427 kts 317°
2026-04-28 17:02 42.50376 2.13696 27540 ft 430 kts 317°
2026-04-28 17:02 42.52691 2.11107 27952 ft 433 kts 317°
2026-04-28 17:02 42.55018 2.08502 28352 ft 436 kts 317°
2026-04-28 17:02 42.57362 2.05874 28739 ft 438 kts 316°
2026-04-28 17:03 42.62087 2.00568 29528 ft 443 kts 316°
2026-04-28 17:03 42.64478 1.97881 29915 ft 445 kts 316°
2026-04-28 17:03 42.66911 1.95246 30247 ft 451 kts 321°
2026-04-28 17:04 42.72520 1.91257 31005 ft 458 kts 332°
2026-04-28 17:04 42.75436 1.89495 31423 ft 457 kts 333°
2026-04-28 17:05 42.81212 1.86005 32379 ft 452 kts 333°
2026-04-28 17:05 42.84078 1.84247 32821 ft 450 kts 332°
2026-04-28 17:05 42.86918 1.82489 33230 ft 448 kts 332°
2026-04-28 17:06 42.92576 1.78956 34046 ft 445 kts 332°
2026-04-28 17:06 42.95354 1.77214 34364 ft 444 kts 332°
2026-04-28 17:06 43.00979 1.73680 34918 ft 445 kts 332°
2026-04-28 17:07 43.06657 1.70105 35186 ft 452 kts 332°
2026-04-28 17:07 43.09508 1.68310 35541 ft 450 kts 332°
2026-04-28 17:07 43.12344 1.66525 35921 ft 447 kts 332°
2026-04-28 17:08 43.15166 1.64746 36236 ft 446 kts 331°
2026-04-28 17:08 43.17985 1.62965 36459 ft 447 kts 331°
2026-04-28 17:08 43.20804 1.61182 36703 ft 447 kts 331°
2026-04-28 17:08 43.23638 1.59389 37009 ft 446 kts 331°
2026-04-28 17:09 43.26452 1.57606 37313 ft 445 kts 330°
2026-04-28 17:09 43.29265 1.55822 37584 ft 445 kts 330°
2026-04-28 17:09 43.32073 1.54039 37838 ft 444 kts 330°
2026-04-28 17:09 43.34876 1.52258 38094 ft 444 kts 330°
2026-04-28 17:10 43.37683 1.50472 38269 ft 445 kts 330°
2026-04-28 17:10 43.40498 1.48678 38473 ft 445 kts 330°
2026-04-28 17:10 43.43308 1.46888 38744 ft 444 kts 330°
2026-04-28 17:10 43.46101 1.45106 38949 ft 443 kts 330°
2026-04-28 17:11 43.48910 1.43312 39090 ft 444 kts 330°
2026-04-28 17:11 43.51676 1.41542 39221 ft 445 kts 330°
2026-04-28 17:11 43.54492 1.39739 39387 ft 445 kts 330°
2026-04-28 17:11 43.57292 1.37945 39551 ft 445 kts 330°
2026-04-28 17:12 43.60099 1.36144 39679 ft 445 kts 330°
2026-04-28 17:12 43.62904 1.34343 39822 ft 445 kts 330°
2026-04-28 17:12 43.68565 1.30914 39929 ft 447 kts 338°
2026-04-28 17:13 43.74701 1.29098 39945 ft 454 kts 345°
2026-04-28 17:13 43.80942 1.27597 39950 ft 457 kts 345°
2026-04-28 17:14 43.87219 1.26051 39961 ft 458 kts 345°
2026-04-28 17:14 43.93495 1.24449 39960 ft 459 kts 345°
2026-04-28 17:15 43.99772 1.22822 39963 ft 458 kts 345°
2026-04-28 17:15 44.06032 1.21191 39977 ft 457 kts 344°
2026-04-28 17:16 44.12225 1.19576 39967 ft 455 kts 344°
2026-04-28 17:16 44.18430 1.17955 39979 ft 453 kts 344°
2026-04-28 17:17 44.24606 1.16339 39983 ft 450 kts 344°
2026-04-28 17:17 44.30752 1.14727 39981 ft 448 kts 344°
2026-04-28 17:18 44.36873 1.13117 39983 ft 447 kts 344°
2026-04-28 17:18 44.42981 1.11507 40009 ft 446 kts 344°
2026-04-28 17:19 44.49079 1.09896 40003 ft 446 kts 344°
2026-04-28 17:19 44.55139 1.08293 39997 ft 446 kts 344°
2026-04-28 17:20 44.60261 1.06934 39995 ft 447 kts 344°
2026-04-28 17:20 44.67380 1.05043 40001 ft 448 kts 345°
2026-04-28 17:21 44.73519 1.03408 39996 ft 449 kts 345°
2026-04-28 17:22 44.82746 1.00944 39992 ft 451 kts 345°
2026-04-28 17:22 44.88916 0.99292 39983 ft 451 kts 345°
2026-04-28 17:23 44.98172 0.96808 39983 ft 451 kts 345°
2026-04-28 17:23 45.04333 0.95150 39989 ft 450 kts 345°
2026-04-28 17:24 45.10482 0.93491 39968 ft 449 kts 345°
2026-04-28 17:24 45.16576 0.91844 39966 ft 447 kts 345°
2026-04-28 17:25 45.25734 0.89361 39972 ft 446 kts 345°
2026-04-28 17:26 45.31818 0.87707 39961 ft 444 kts 345°
2026-04-28 17:26 45.37883 0.86055 39964 ft 443 kts 345°
2026-04-28 17:27 45.43938 0.84401 39961 ft 443 kts 345°
2026-04-28 17:27 45.49998 0.82742 39959 ft 443 kts 345°
2026-04-28 17:28 45.56047 0.81083 39969 ft 443 kts 345°
2026-04-28 17:28 45.65155 0.78577 39968 ft 445 kts 345°
2026-04-28 17:29 45.71252 0.76895 39965 ft 447 kts 345°
2026-04-28 17:30 45.80415 0.74361 39968 ft 451 kts 345°
2026-04-28 17:30 45.89681 0.71790 39966 ft 453 kts 345°
2026-04-28 17:31 45.98987 0.69200 39978 ft 455 kts 345°
2026-04-28 17:32 46.08315 0.66594 39960 ft 455 kts 345°
2026-04-28 17:32 46.14526 0.64854 39968 ft 455 kts 345°
2026-04-28 17:33 46.20733 0.63111 39971 ft 454 kts 345°
2026-04-28 17:33 46.24877 0.61946 39969 ft 453 kts 345°
2026-04-28 17:34 46.33114 0.59623 39969 ft 452 kts 345°
2026-04-28 17:34 46.39272 0.57881 39971 ft 450 kts 345°